Menomonie, WI

4:56 AM CDT on August 30, 2016 (GMT -0500)
Menomonie

Weather History for KLUM - January, 2014

Change the Weather History Date:

Tuesday, January 21, 2014

  Actual Average (KEAU) Record (KEAU)
Temperature  
Mean Temperature -6 °F 14 °F  
Max Temperature 1 °F 23 °F 47 °F (1908)
Min Temperature -13 °F 5 °F -29 °F (1984)
Degree Days  
Heating Degree Days 71 51  
Month to date heating degree days 1066  
Since 1 July heating degree days 4242  
Cooling Degree Days 0 0  
Month to date cooling degree days 0  
Year to date cooling degree days 0  
Moisture  
Dew Point -16 °F    
Average Humidity 61    
Maximum Humidity 78    
Minimum Humidity 50    
Precipitation  
Precipitation 0.00 in 0.03 in 0.90 in (1917)
Month to date precipitation 0.60  
Year to date precipitation 0.60  
Snow  
Snow 0.00 in 0.50 in 9.00 in (1917)
Month to date snowfall 8.9  
Since 1 July snowfall 24.7  
Snow Depth -    
Sea Level Pressure  
Sea Level Pressure 30.28 in    
Wind  
Wind Speed 6 mph (SSW)    
Max Wind Speed 14 mph    
Max Gust Speed -    
Visibility 9 miles    
Events Snow    
T = Trace of Precipitation, MM = Missing Value Source: NWS Daily Summary

Daily Weather History Graph

Daily Weather History Graph

Search for Another Location

Airport or City:

Trip Planner

Search our weather history database for the weather conditions in past years. The results will help you decide how hot, cold, wet, or windy it might be!

Date:

Astronomy

Jan. 21, 2014 Rise Set
Actual Time 7:37 AM CST 5:00 PM CST
Civil Twilight 7:05 AM CST 5:32 PM CST
Nautical Twilight 6:29 AM CST 6:08 PM CST
Astronomical Twilight 5:54 AM CST 6:43 PM CST
Moon 10:50 PM CST (1/21) 9:52 AM CST (1/21)
Length of Visible Light 10h 27m
Length of Day
9h 22m
Waning Gibbous, 74% of the Moon is Illuminated
Jan 21
Waning Gibbous
Jan 23
Last Quarter
Jan 30
New
Feb 6
First Quarter
Feb 14
Full

Hourly Weather History & Observations

Time (CST) Temp. Windchill Dew Point Humidity Pressure Visibility Wind Dir Wind Speed Gust Speed Precip Events Conditions
12:15 AM -4.0 °F -20.2 °F -18.4 °F 50% 30.38 in 10.0 mi NW 9.2 mph - N/A   Clear
12:35 AM -4.2 °F -24.0 °F -18.4 °F 51% 30.38 in 10.0 mi NW 13.8 mph - N/A   Clear
12:55 AM -4.4 °F -22.6 °F -18.4 °F 51% 30.38 in 10.0 mi NW 11.5 mph - N/A   Clear
1:15 AM -5.1 °F -21.5 °F -18.4 °F 53% 30.39 in 10.0 mi WNW 9.2 mph - N/A   Clear
1:35 AM -5.8 °F -21.2 °F -18.9 °F 53% 30.39 in 10.0 mi WNW 8.1 mph - N/A   Clear
1:55 AM -6.2 °F -21.7 °F -19.1 °F 54% 30.39 in 10.0 mi WNW 8.1 mph - N/A   Clear
2:15 AM -6.7 °F -19.5 °F -19.3 °F 54% 30.40 in 10.0 mi NW 5.8 mph - N/A   Clear
2:35 AM -7.4 °F -18.6 °F -19.3 °F 56% 30.40 in 10.0 mi WNW 4.6 mph - N/A   Clear
2:55 AM -7.6 °F -20.6 °F -19.3 °F 57% 30.41 in 10.0 mi West 5.8 mph - N/A   Clear
3:15 AM -8.5 °F -21.6 °F -19.5 °F 59% 30.41 in 10.0 mi West 5.8 mph - N/A   Clear
3:35 AM -8.7 °F -23.4 °F -20.2 °F 57% 30.42 in 10.0 mi WNW 6.9 mph - N/A   Clear
3:55 AM -8.9 °F -22.1 °F -20.0 °F 58% 30.42 in 10.0 mi WNW 5.8 mph - N/A   Clear
4:15 AM -10.5 °F -22.1 °F -20.6 °F 61% 30.41 in 10.0 mi West 4.6 mph - N/A   Clear
4:35 AM -10.3 °F -21.9 °F -20.2 °F 62% 30.42 in 10.0 mi WSW 4.6 mph - N/A   Clear
4:55 AM -10.3 °F -21.9 °F -20.4 °F 61% 30.42 in 10.0 mi West 4.6 mph - N/A   Clear
5:15 AM -10.8 °F -22.5 °F -20.9 °F 61% 30.42 in 10.0 mi West 4.6 mph - N/A   Clear
5:35 AM -11.4 °F -23.2 °F -20.9 °F 63% 30.41 in 10.0 mi West 4.6 mph - N/A   Clear
5:55 AM -11.7 °F -23.6 °F -20.6 °F 65% 30.41 in 10.0 mi West 4.6 mph - N/A   Clear
6:15 AM -12.1 °F -21.7 °F -20.7 °F 65% 30.40 in 10.0 mi West 3.5 mph - N/A   Clear
6:35 AM -12.1 °F -21.7 °F -20.4 °F 67% 30.40 in 10.0 mi West 3.5 mph - N/A   Clear
6:55 AM -12.5 °F - -20.7 °F 67% 30.39 in 10.0 mi Calm Calm - N/A   Clear
7:15 AM -13.9 °F -26.1 °F -21.5 °F 69% 30.40 in 10.0 mi WSW 4.6 mph - N/A   Clear
7:35 AM -13.4 °F -25.5 °F -21.3 °F 68% 30.38 in 10.0 mi SW 4.6 mph - N/A   Clear
7:55 AM -13.4 °F -23.1 °F -21.1 °F 68% 30.38 in 10.0 mi West 3.5 mph - N/A   Clear
8:15 AM -13.5 °F -27.6 °F -21.1 °F 69% 30.39 in 10.0 mi West 5.8 mph - N/A   Clear
8:35 AM -13.0 °F -25.1 °F -20.7 °F 68% 30.38 in 10.0 mi WSW 4.6 mph - N/A   Clear
8:55 AM -11.7 °F -25.5 °F -20.7 °F 64% 30.38 in 10.0 mi West 5.8 mph - N/A   Clear
9:15 AM -10.8 °F -20.2 °F -21.1 °F 61% 30.38 in 10.0 mi West 3.5 mph - N/A   Clear
9:35 AM -10.7 °F - -20.7 °F 61% 30.37 in 10.0 mi Calm Calm - N/A   Clear
9:55 AM -9.8 °F -23.1 °F -20.6 °F 59% 30.37 in 10.0 mi WSW 5.8 mph - N/A   Clear
10:15 AM -9.2 °F -20.7 °F -20.6 °F 58% 30.37 in 10.0 mi West 4.6 mph - N/A   Clear
10:35 AM -7.6 °F -16.5 °F -19.7 °F 56% 30.38 in 10.0 mi West 3.5 mph - N/A   Clear
10:55 AM -7.2 °F - -19.7 °F 55% 30.36 in 10.0 mi Calm Calm - N/A   Clear
11:15 AM -6.2 °F - -19.3 °F 53% 30.37 in 10.0 mi Calm Calm - N/A   Clear
11:35 AM -5.8 °F - -19.3 °F 52% 30.36 in 10.0 mi Calm Calm - N/A   Clear
11:55 AM -5.8 °F - -18.4 °F 55% 30.35 in 10.0 mi Calm Calm - N/A   Clear
12:15 PM -4.9 °F -13.4 °F -17.0 °F 56% 30.33 in 10.0 mi ESE 3.5 mph - N/A   Clear
12:35 PM -4.2 °F -12.6 °F -15.7 °F 58% 30.31 in 10.0 mi East 3.5 mph - N/A   Clear
12:55 PM -2.6 °F - -15.9 °F 53% 30.29 in 10.0 mi Calm Calm - N/A   Clear
1:15 PM -2.4 °F -14.4 °F -15.9 °F 53% 30.28 in 10.0 mi SSE 5.8 mph - N/A   Clear
1:35 PM -0.9 °F -12.7 °F -15.5 °F 50% 30.27 in 10.0 mi South 5.8 mph - N/A   Scattered Clouds
1:55 PM -0.8 °F -12.5 °F -15.2 °F 51% 30.25 in 10.0 mi South 5.8 mph - N/A   Clear
2:15 PM -0.9 °F -11.0 °F -15.2 °F 51% 30.23 in 10.0 mi SSE 4.6 mph - N/A   Clear
2:35 PM -1.5 °F -13.3 °F -15.0 °F 53% 30.22 in 10.0 mi SE 5.8 mph - N/A   Scattered Clouds
2:55 PM -1.3 °F -11.4 °F -15.3 °F 51% 30.22 in 10.0 mi SE 4.6 mph - N/A   Mostly Cloudy
3:15 PM -1.3 °F -13.1 °F -15.0 °F 52% 30.22 in 10.0 mi SSE 5.8 mph - N/A   Mostly Cloudy
3:35 PM -1.3 °F -11.4 °F -14.8 °F 53% 30.22 in 10.0 mi SSE 4.6 mph - N/A   Mostly Cloudy
3:55 PM -0.9 °F -11.0 °F -14.3 °F 53% 30.21 in 10.0 mi ESE 4.6 mph - N/A   Overcast
4:15 PM -1.5 °F -14.7 °F -13.0 °F 58% 30.20 in 10.0 mi ESE 6.9 mph - N/A   Overcast
4:35 PM -2.0 °F -12.2 °F -13.4 °F 59% 30.19 in 10.0 mi East 4.6 mph - N/A   Mostly Cloudy
4:55 PM -1.7 °F -9.7 °F -13.2 °F 58% 30.18 in 10.0 mi East 3.5 mph - N/A   Mostly Cloudy
5:15 PM -1.7 °F -9.7 °F -13.4 °F 58% 30.18 in 10.0 mi ESE 3.5 mph - N/A   Mostly Cloudy
5:35 PM -2.2 °F -10.4 °F -13.0 °F 60% 30.17 in 10.0 mi ESE 3.5 mph - N/A   Overcast
5:55 PM -2.2 °F -10.4 °F -13.0 °F 60% 30.16 in 10.0 mi SE 3.5 mph - N/A   Overcast
6:15 PM -2.7 °F - -13.7 °F 60% 30.16 in 10.0 mi Calm Calm - N/A   Mostly Cloudy
6:35 PM -2.7 °F - -13.4 °F 61% 30.17 in 7.0 mi Calm Calm - N/A   Mostly Cloudy
6:55 PM -1.5 °F -9.5 °F -11.6 °F 62% 30.16 in 10.0 mi ESE 3.5 mph - N/A Snow Light Snow
7:15 PM -1.3 °F - -12.3 °F 60% 30.16 in 10.0 mi Calm Calm - N/A   Overcast
7:35 PM -0.9 °F -8.9 °F -10.5 °F 64% 30.15 in 10.0 mi ESE 3.5 mph - N/A   Overcast
7:55 PM -0.6 °F -8.5 °F -10.7 °F 62% 30.13 in 10.0 mi SE 3.5 mph - N/A   Overcast
8:15 PM -0.6 °F -8.5 °F -10.3 °F 64% 30.12 in 10.0 mi SE 3.5 mph - N/A   Overcast
8:35 PM -0.0 °F -9.9 °F -9.4 °F 65% 30.10 in 10.0 mi SSE 4.6 mph - N/A   Overcast
8:55 PM 0.7 °F -12.1 °F -9.4 °F 63% 30.08 in 10.0 mi SSE 6.9 mph - N/A Snow Light Snow
9:15 PM 0.7 °F -9.1 °F -8.3 °F 66% 30.08 in 4.0 mi SSE 4.6 mph - N/A Snow Light Snow
9:35 PM 0.5 °F -13.6 °F -6.5 °F 72% 30.06 in 2.5 mi SSE 8.1 mph - N/A Snow Light Snow
9:55 PM 0.5 °F -12.3 °F -5.8 °F 75% 30.05 in 2.5 mi SSE 6.9 mph - N/A Snow Light Snow
10:15 PM 0.9 °F -10.5 °F -4.9 °F 77% 30.05 in 4.0 mi SSE 5.8 mph - N/A Snow Light Snow
10:35 PM 1.2 °F -8.5 °F -4.5 °F 77% 30.04 in 3.0 mi SSE 4.6 mph - N/A Snow Light Snow
10:55 PM 1.2 °F -8.5 °F -4.2 °F 78% 30.03 in 2.5 mi SE 4.6 mph - N/A Snow Light Snow
11:15 PM 1.4 °F -6.2 °F -4.0 °F 78% 30.03 in 3.0 mi SSE 3.5 mph - N/A Snow Light Snow
11:35 PM 1.8 °F -7.8 °F -3.6 °F 78% 30.02 in 3.0 mi SSE 4.6 mph - N/A Snow Light Snow
11:55 PM 1.8 °F -5.8 °F -3.6 °F 78% 30.02 in 3.0 mi SSE 3.5 mph - N/A Snow Light Snow